{"data":{"norad_id":53355,"intl_designator":"2022-092A","name":"SBIRS GEO-6 (USA 336)","alt_names":[],"object_type":"PAYLOAD","status":"ACTIVE","operator":null,"country":"US","launch_date":"2022-08-04","launch_site_code":"AFETR","launch_vehicle":null,"mission":null,"orbit_class":"UNKNOWN","rcs_meters":null,"size_class":null,"mass_kg":null,"dimensions":null,"purposes":["comms"],"wikipedia_slug":null,"has_3d_model":false,"image_url":null,"decayed_at":null,"tle_current":{"epoch":"2026-09-19T20:08:23.621856Z","epoch_age_seconds":79094,"freshness":"FRESH","line1":"1 53355U 22092A   26262.83916229 -.00000295  00000+0  00000+0 0  9999","line2":"2 53355   3.1088 319.1666 0001915 213.2225 267.4564  1.00272145 15189","mean_motion":1.00272145,"eccentricity":0.0001915,"inclination_deg":3.1088,"raan_deg":319.1666,"arg_perigee_deg":213.2225,"mean_anomaly_deg":267.4564,"bstar":0,"rev_number":1518,"period_min":1436.0917481121,"perigee_km":35778.41951358,"apogee_km":35794.568567268,"semimajor_km":42164.631040424,"source":"CELESTRAK","updated_at":"2026-09-20T09:00:35.305386Z"}}}